Location: Banff
(51.1667°N, 115.5667°W)
Time: 10:53:43
(UTC+00:00)

Courier 1B Rocket - Pass Details

Date: 04 December 2020
Orbit: 920 x 1202 km, 28.2° (Epoch: 17 January)

Event Time Altitude Azimuth Distance (km) Brightness Sun altitude
Rises 13:19:49 0° 231° (SW) 4,068 - -19.2°
Exits shadow 13:21:05 - 225° (SW) 3,780 7.8 -19.0°
Reaches altitude 10° 13:25:06 10° 201° (SSW) 3,126 7.5 -18.4°
Maximum altitude 13:27:30 12° 183° (S) 3,004 7.7 -18.0°
Drops below altitude 10° 13:29:55 10° 165° (SSE) 3,126 8.0 -17.6°
Sets 13:35:12 0° 135° (SE) 4,066 9.3 -16.8°
